Location: Cumbre Roja
(10.2766°N, 67.0675°W)
Time: 02:35:31
(UTC+00:00)

SPOT 1/Viking Rocket - Pass Details

Date: 18 November 2025
Orbit: 773 x 788 km, 98.2° (Epoch: 08 December)

Event Time Altitude Azimuth Distance (km) Brightness Sun altitude
Rises 23:09:28 0° 169° (S) 3,247 6.8 -16.5°
Reaches altitude 10° 23:11:47 10° 170° (S) 2,322 6.1 -17.0°
Maximum altitude 23:16:54 83° 258° (WSW) 788 3.6 -18.2°
Drops below altitude 10° 23:22:04 10° 346° (NNW) 2,331 6.0 -19.4°
Sets 23:24:23 0° 347° (NNW) 3,261 6.7 -20.0°
